Weather in Vagay

Russia / Tyumen Oblast     56°28′25″N   67°18′30″E
temp.,
°C
wind,
m/s
gust,
m/s
humid.,
%
clouds,
%
prec.,
mm/h
press.,
hPa
HPBL,
m
15 august, mon
mon1523:00+15nw395794 0.0 1017348
02:00+10nw37755 0.0 1018114
05:00+8nw48855 0.0 1020142
08:00+13nnw466824 0.0 1020380
11:00+17nw56494 0.0 10201637
14:00+18nw574652 0.0 10202087
17:00+16nw475895 0.0 1020682
20:00+14nw3758100 0.0 1020159
16 august, tue
tue1623:00+9ne22795 0.0 102111
02:00+9wnw228011 0.0 102118
05:00+8wnw348130 0.0 102255
08:00+12wsw5764100 0.0 1021235
11:00+16w695682 0.0 1020637
14:00+18wnw796089 0.2 10191552
17:00+19nw695158 0.8 10182391
20:00+13n3365100 0.0 101927
17 august, wed
wed1723:00+13nw3755100 0.0 1019134
02:00+11nw346385 0.1 101976
05:00+10n4106566 0.1 1019325
08:00+11n610665 0.0 1020691
11:00+14nnw685386 0.0 10201822
14:00+13n576274 0.2 10211144
17:00+13nnw685274 0.4 10211235
20:00+9nw357153 0.0 102076
18 august, thu
thu1823:00+7nnw357985 0.0 102185
02:00+5nnw368866 0.0 1021107
05:00+4nnw49975 0.0 1022179
08:00+8n597784 0.0 1023533
11:00+12n565280 0.0 10231763
14:00+12n5749100 0.1 10241857
17:00+12n575694 0.1 10241266
20:00+9nne2468100 0.0 1025107
19 august, fri
fri1923:00+9nw3568100 0.0 1025141
02:00+9nw3766100 0.0 1025204
05:00+6nnw36817 0.0 1026126
08:00+9nw4670100 0.0 1026251
11:00+11nw4664100 0.0 1027435
14:00+11nw3669100 0.0 1026434
17:00+14nw456112 0.0 1026796
20:00+10w33785 0.0 102630